Theta_e
310 310 311 313 312 305 314 317 322 319 316 320 323 325 326 327 327 326 326 327 326 326 325 325 324 324 323 324 323 319 318 320 321 319 319 318 320 322 324 328 330 330 328 327 328
314 311 310 312 313 311 306 315 320 322 318 315 319 323 323 324 325 326 326 326 326 326 325 324 324 323 322 325 324 319 318 319 320 316 315 315 319 323 325 327 329 327 329 327 328
316 314 311 310 313 314 309 307 315 319 322 319 315 320 322 323 324 324 324 326 326 325 323 323 322 322 323 324 323 321 321 319 321 317 320 315 319 321 324 324 326 327 327 327 329
315 315 313 310 311 313 313 306 310 315 320 321 319 317 320 321 323 321 321 324 326 324 322 322 321 323 321 321 322 324 323 322 322 322 324 320 316 317 323 325 325 326 326 326 327
313 314 315 312 310 312 313 311 304 313 318 321 321 317 319 321 321 320 320 322 324 322 322 322 322 322 320 320 320 321 321 321 322 323 323 323 317 315 317 321 322 321 325 325 325
312 313 314 315 310 312 312 313 309 306 315 320 321 319 318 320 320 322 319 322 324 322 321 321 321 322 321 321 319 320 320 320 321 322 323 318 318 317 319 319 319 319 321 324 324
309 311 313 314 312 312 312 314 311 304 313 315 319 320 319 319 318 319 320 319 323 322 321 321 321 321 321 320 322 322 323 320 321 321 320 315 318 314 321 319 319 319 318 323 324
307 309 311 313 314 311 313 313 313 310 306 314 316 319 319 318 319 319 319 319 319 322 321 321 322 322 321 319 319 321 319 322 318 321 322 318 326 320 321 318 319 319 319 320 322
306 307 311 313 314 312 312 312 313 310 304 313 315 317 318 316 317 318 319 319 319 321 321 321 322 321 319 316 318 316 317 319 319 318 320 315 321 318 320 319 318 319 319 319 320
305 305 307 311 314 314 312 312 313 310 304 310 313 317 316 317 318 318 318 318 319 320 320 320 320 316 314 317 321 318 320 317 318 315 316 319 316 316 319 317 317 319 319 319 320
302 304 305 310 313 314 312 312 314 310 306 309 313 314 315 316 316 316 317 319 319 320 320 319 321 321 319 315 315 314 317 318 316 315 316 315 315 316 316 317 317 318 320 320 319
302 303 304 305 311 314 312 313 310 308 308 308 312 314 315 316 316 316 317 319 319 320 318 318 321 316 314 316 318 316 317 318 315 315 316 316 317 317 315 316 317 318 319 319 320
302 302 303 304 307 308 312 313 310 307 306 307 311 314 314 315 316 316 316 314 317 318 319 320 318 316 316 316 318 317 321 319 319 316 315 313 315 315 314 315 318 318 318 317 318
302 302 302 303 304 308 313 312 311 306 307 309 311 311 313 313 315 316 317 317 316 316 318 319 317 317 317 317 317 321 316 318 319 320 321 315 320 316 314 314 313 316 317 318 318
301 302 303 303 305 307 312 311 308 306 308 307 309 310 312 312 313 316 317 316 316 316 316 316 315 318 319 318 316 319 315 317 317 319 318 317 321 317 314 314 313 314 317 317 317
301 303 303 303 303 307 311 312 307 307 308 309 309 310 310 311 312 314 316 315 315 315 314 314 314 315 314 314 314 313 315 315 315 317 322 317 317 315 313 312 313 314 316 316 317
300 301 302 302 304 304 309 308 308 309 304 309 309 310 310 311 312 313 315 316 317 315 317 315 315 314 314 315 314 315 317 319 321 320 319 311 315 317 312 311 313 314 317 317 318
299 300 303 302 303 305 307 307 310 305 304 307 308 310 310 311 311 311 313 315 314 312 315 317 318 315 314 314 315 317 316 316 315 316 314 310 316 313 311 313 313 313 314 315 315
299 300 301 302 303 305 308 309 307 306 306 309 309 309 311 311 312 311 312 313 314 311 315 314 313 311 314 315 314 316 316 313 315 298 312 313 311 310 309 310 311 314 315 316 317
300 300 302 301 303 304 305 308 303 302 306 308 308 308 310 311 311 311 313 312 312 312 310 310 313 312 312 312 312 315 314 319 317 317 315 312 311 314 312 312 311 311 313 315 314
301 302 302 301 302 306 307 304 302 306 307 307 307 307 307 310 309 310 310 306 311 312 311 311 309 313 312 313 313 313 316 316 316 317 316 312 313 307 311 310 309 309 312 311 312
302 302 303 304 303 301 306 304 305 305 304 303 304 304 307 308 308 309 308 306 308 312 313 311 310 310 313 311 310 312 313 316 319 316 317 317 316 309 308 307 308 308 310 310 312
301 302 302 304 304 306 302 305 303 304 303 304 304 305 306 308 310 307 306 306 309 311 311 310 311 309 308 305 309 314 314 314 314 313 315 315 313 304 306 308 310 311 312 312 312
301 304 304 303 301 304 306 306 303 301 301 301 303 306 307 307 304 305 307 306 307 309 310 310 307 306 308 304 306 310 311 313 315 316 314 313 313 310 310 312 313 314 313 314 314
302 303 302 305 303 306 306 306 305 302 301 303 305 307 307 306 306 306 306 305 306 309 309 307 306 307 308 307 309 309 309 310 314 313 311 311 308 308 309 310 311 311 312 312 312
301 301 302 302 303 306 307 305 305 300 301 301 305 305 304 306 306 308 306 307 308 307 308 309 309 309 308 309 309 309 308 308 310 311 311 311 311 308 310 311 311 312 312 311 311
303 304 305 304 304 306 305 305 302 300 301 303 303 304 304 302 305 305 306 306 305 306 306 310 308 309 309 306 308 305 307 307 307 308 310 310 310 308 309 310 311 311 311 311 311
Wind_Speed
34 31 32 29 29 33 34 31 28 27 28 30 28 26 25 24 22 24 23 20 20 15 8 11 8 5 3 1 1 2 3 2 3 5 4 0 3 3 4 7 9 9 4 3 12
37 36 33 33 31 31 34 33 31 27 27 27 29 29 26 25 25 28 30 22 19 17 15 12 11 6 3 3 3 2 3 5 2 2 2 3 3 6 4 4 8 8 9 6 14
39 38 35 36 34 31 32 35 33 31 28 26 27 28 28 24 20 31 26 25 19 16 13 10 8 6 3 4 4 4 3 1 2 2 4 4 2 4 5 3 11 14 13 11 16
40 40 39 36 38 34 31 32 34 32 30 29 25 26 28 25 9 6 25 24 23 18 16 10 8 5 4 3 4 3 6 6 3 2 4 4 7 4 11 6 5 12 10 14 18
40 41 40 39 39 37 34 32 33 34 31 30 27 26 27 25 27 1 9 23 26 19 18 16 12 7 4 4 3 3 3 4 6 11 11 12 9 7 10 9 8 6 14 16 18
38 39 41 41 39 38 37 33 32 34 32 30 27 27 30 25 24 28 7 20 30 25 21 18 10 11 5 3 4 2 3 7 6 5 7 5 6 3 4 9 10 9 11 17 19
44 39 40 41 40 39 38 35 31 32 33 30 29 30 27 33 12 28 23 12 27 28 25 20 15 12 8 4 4 1 3 6 4 5 4 2 6 8 16 10 10 10 12 16 20
44 37 36 41 41 39 38 36 32 30 34 30 27 25 20 37 16 17 28 21 19 28 22 20 13 11 5 5 4 1 3 0 2 4 5 6 10 5 9 13 15 15 15 18 20
40 42 40 41 40 40 38 37 31 28 31 29 24 25 5 28 32 23 21 25 22 26 23 18 14 6 7 6 3 3 4 4 6 5 1 6 6 5 6 15 18 17 18 20 21
42 41 37 38 38 40 38 35 30 26 26 25 22 14 18 21 32 32 24 19 27 23 18 16 7 4 0 4 11 6 4 3 3 2 1 3 11 8 15 13 11 15 22 24 25
44 43 43 43 37 45 40 37 29 14 33 29 14 11 10 18 25 30 28 20 24 24 9 13 6 17 13 4 5 6 3 3 2 3 2 4 8 14 22 21 20 28 29 29 29
46 45 44 49 48 37 47 47 38 20 15 29 7 37 12 24 18 27 27 19 15 10 10 5 17 8 8 7 5 5 3 2 4 2 1 6 11 15 13 19 26 30 32 33 34
44 45 44 48 51 35 61 55 43 21 10 19 18 27 17 20 13 28 31 19 2 8 14 12 3 16 8 4 7 4 9 3 5 6 3 6 8 11 8 18 28 33 35 37 38
38 41 41 43 37 38 52 59 47 28 4 7 14 10 27 14 5 19 34 21 6 13 8 6 2 11 7 6 7 8 5 4 3 1 6 2 7 9 5 9 9 24 26 28 31
39 39 40 44 32 34 50 62 49 20 9 12 11 12 21 18 12 11 29 14 8 7 6 3 7 7 5 5 6 3 6 7 4 2 3 5 4 8 2 6 8 18 27 27 28
41 39 39 40 40 26 43 57 42 7 8 10 16 13 13 12 5 15 14 11 9 3 5 3 2 6 8 4 7 7 5 3 2 2 5 7 9 5 5 5 4 17 27 27 22
44 42 41 43 41 42 47 50 10 9 6 13 18 20 21 12 11 11 17 13 9 6 10 5 4 3 8 6 2 4 6 1 3 4 7 2 5 13 9 6 7 12 22 24 21
46 40 40 43 42 31 40 17 11 10 15 8 20 22 15 17 9 10 17 14 9 6 4 9 6 9 4 6 7 8 7 4 5 4 4 2 8 6 14 23 24 28 30 32 31
43 40 45 45 42 38 36 17 9 18 14 20 21 24 10 15 9 7 13 19 18 11 8 4 3 3 2 4 6 4 8 6 2 2 1 4 9 10 8 11 16 28 29 29 28
47 40 41 41 41 38 17 8 4 7 15 21 17 16 21 25 11 11 17 15 11 13 7 7 4 1 3 5 4 2 4 3 4 4 5 5 6 12 7 14 13 9 20 19 18
46 27 36 45 38 19 16 5 5 15 31 11 10 10 12 26 17 17 18 1 9 13 7 5 4 3 6 5 9 2 3 2 2 3 4 2 7 7 12 12 9 9 8 17 18
38 6 38 44 11 3 9 11 11 17 7 6 6 6 13 22 7 11 8 3 20 22 14 2 3 4 2 3 4 6 9 6 3 3 3 2 10 6 9 3 6 12 19 12 22
27 9 34 43 10 6 6 9 8 12 4 5 5 4 15 15 7 6 5 3 17 19 18 9 4 4 2 3 3 6 7 6 4 3 9 3 9 3 8 9 18 25 37 38 38
16 6 15 29 6 11 15 19 11 10 6 8 7 20 13 14 6 6 4 2 7 11 17 17 4 6 8 5 6 6 7 14 14 5 6 17 30 13 15 16 27 37 41 44 40
12 4 6 13 8 19 13 25 22 7 5 9 4 16 17 6 4 5 5 4 4 14 6 5 5 3 1 5 3 4 6 12 16 20 9 24 17 3 5 7 13 26 36 43 44
11 6 11 10 20 23 20 16 25 5 4 3 12 12 9 12 8 12 8 4 4 1 5 0 5 4 2 2 4 6 8 9 11 11 16 15 31 7 9 16 22 29 35 36 43
11 27 28 18 14 18 7 11 11 10 12 14 22 12 8 6 20 18 11 11 11 8 4 7 5 3 2 1 3 7 15 12 8 12 16 18 35 15 9 18 28 35 35 34 39
Wind_Direction
240 243 236 234 235 233 230 226 224 225 225 229 225 225 228 227 224 232 223 231 234 233 251 252 251 242 244 127 116 123 70 206 238 184 249 273 211 200 187 159 179 192 202 219 183
238 240 238 235 233 235 231 226 224 223 222 226 225 225 227 234 238 235 228 228 225 233 237 249 238 231 165 138 145 118 133 216 255 250 279 303 228 190 175 178 206 212 217 217 187
239 237 237 233 233 232 232 228 225 225 221 221 226 225 228 228 241 246 234 232 226 229 226 232 226 202 172 155 159 139 199 258 281 283 342 313 233 203 174 236 224 219 218 212 196
240 236 234 232 229 232 232 230 225 224 223 217 224 224 227 225 236 261 241 229 229 229 222 215 201 174 144 169 167 141 233 230 286 264 333 322 315 244 203 224 254 238 233 224 207
243 238 233 231 228 226 227 228 226 222 217 216 218 222 220 219 228 319 236 211 222 218 218 213 195 167 176 162 162 164 244 231 262 272 279 294 277 269 248 232 243 244 230 233 228
242 238 235 231 228 225 224 225 224 220 218 215 211 217 218 227 238 225 253 208 209 211 211 208 211 193 156 152 176 192 268 268 273 261 278 262 272 265 279 225 240 248 244 234 232
242 238 233 231 226 224 222 222 221 220 216 216 212 216 214 222 248 227 218 218 215 210 209 203 201 181 168 141 217 219 313 328 259 251 237 194 278 223 245 257 253 254 246 237 236
239 239 233 228 226 223 221 219 217 217 213 213 214 217 235 216 202 204 215 227 211 211 212 204 188 179 153 130 75 113 63 184 281 195 241 158 261 253 249 248 254 254 250 244 241
238 235 233 223 224 220 220 217 219 218 211 207 209 209 231 225 219 207 205 220 200 201 198 192 181 159 149 111 51 13 227 205 313 214 248 183 270 268 252 247 250 255 258 254 248
240 235 232 220 220 218 215 212 212 209 202 199 209 201 226 202 203 210 198 208 199 174 154 166 164 121 71 147 212 178 217 248 228 337 315 268 262 257 263 284 269 281 265 262 254
240 235 233 222 216 218 207 202 177 165 190 191 211 184 188 182 194 191 199 205 190 175 176 172 177 206 196 159 121 130 155 194 244 290 292 251 266 277 277 276 267 269 270 267 264
232 235 233 227 230 208 205 194 184 188 182 196 216 197 177 185 171 183 204 179 177 181 125 153 211 175 142 158 133 131 137 233 277 350 230 291 276 278 257 262 259 262 267 267 268
228 227 229 235 234 233 202 197 186 165 142 207 206 192 169 189 175 193 200 215 286 152 182 185 190 145 138 150 155 171 223 197 252 327 292 315 274 261 258 252 260 260 262 264 265
225 225 224 229 230 233 202 196 187 164 120 174 197 201 201 185 200 198 195 183 166 195 200 204 109 148 155 175 154 224 166 243 280 320 270 13 295 267 229 252 250 265 262 263 264
222 222 220 216 215 222 194 193 177 162 182 166 168 187 179 174 143 184 187 187 155 142 143 201 157 134 155 163 154 205 151 184 186 204 329 223 261 271 292 252 262 266 268 269 268
224 219 214 214 223 227 193 183 163 153 185 167 149 163 140 176 162 158 175 166 140 107 81 160 156 160 164 129 157 142 98 89 83 123 251 203 193 250 238 215 239 256 267 276 277
222 219 212 212 211 213 182 159 169 195 133 162 169 161 168 169 160 178 178 177 166 162 170 154 159 138 138 115 88 151 134 220 217 199 243 323 203 248 278 252 235 246 269 275 267
218 214 208 214 218 214 193 159 186 152 161 181 155 151 172 143 185 179 180 186 173 130 156 162 179 164 180 169 161 176 178 175 210 204 272 315 242 255 230 256 257 264 269 275 279
209 210 209 203 207 207 195 188 157 158 157 152 140 153 152 168 132 153 191 195 190 180 142 141 153 28 108 122 136 186 202 199 9 62 306 222 285 279 253 274 270 260 263 270 284
200 204 207 201 202 208 181 160 132 140 134 143 146 172 163 175 153 161 176 195 186 179 143 187 121 178 156 82 53 143 139 133 189 215 226 255 264 235 303 285 276 272 273 291 315
185 186 198 201 200 207 197 132 138 149 140 154 139 148 169 172 176 180 177 3 159 168 118 140 105 125 122 186 171 118 178 185 250 204 212 293 258 212 216 242 278 295 326 337 350
176 179 173 183 183 199 169 141 142 141 107 91 86 72 165 165 140 167 197 174 187 163 163 98 107 146 156 54 182 160 180 181 209 193 220 285 265 211 229 254 356 336 322 328 331
161 142 174 177 186 159 127 133 112 140 90 118 113 113 143 155 134 126 154 309 167 164 163 156 162 125 54 8 15 202 200 193 198 134 224 218 254 349 62 22 338 328 323 322 321
142 150 154 187 205 133 138 138 120 61 55 71 100 116 121 150 47 126 139 87 179 169 164 154 149 159 194 192 142 179 197 201 208 211 226 230 265 264 306 317 312 312 315 312 307
153 175 153 170 164 143 142 146 141 133 72 113 73 145 143 137 94 124 109 118 81 162 150 129 160 140 218 112 98 191 191 195 206 223 205 256 284 235 262 270 290 301 297 297 301
133 152 99 122 163 139 137 159 139 100 105 106 136 145 141 159 159 154 126 134 165 81 126 212 132 132 210 196 244 251 226 230 231 241 255 274 273 70 309 301 293 283 283 285 289
163 135 128 143 164 139 134 141 144 129 29 120 125 108 96 138 139 152 131 137 148 144 122 142 129 109 207 233 180 280 232 221 220 223 235 242 255 284 270 277 274 276 283 285 286